Showing default

OPS 1427 (OV3-4), 2201

Orbit data source: Space-Track

OPS 1427 (OV3-4), 2201 is a payload satellite owned by USAF OAR (US) in LEO that was launched on Fri, 10 Jun 1966 UTC via an SCOUT B launch vehicle from the Wallops Island (WLPIS). Payload-class satellites include a variety of spacecraft equipped with specific instruments for various scientific and technological missions. These include communications satellites like Starlink; space stations such as the ISS; scientific satellites like the Hubble; Earth observation satellites from companies like Planet Labs, Umbra, and HawkEye 360; GPS; miniature CubeSats for education and research; and military/defense satellites.

Loading next visibility...
Identifier
2201, 1966-052A
Orbit
LEO
Country
Flag of USUS
Related business
Manufacturer
Space General
Mission
Spacecraft
Bus & Motor
OV3, Unknown motor
Mass
78 kg wet, 78 kg dry
Launch date (UTC)
1966-06-10 (59 years ago)
Launch vehicle
SCOUT B
Launch site
Wallops Island (WLPIS)
Object type
Payload
Rocket body
Debris
Shape & HBR
Unknown
Radar Cross Section
Medium (>0.1 m² and <1 m²)

Expand to show TLE details & history
Last TLE update: 7 hours ago

TLE from 7 hours ago
0 OPS 1427 (OV3-4)
1 02201U 66052A   25292.96790734  .00000166  00000-0  30506-3 0  9999
2 02201  40.8851 151.2760 2236797  68.5292 313.8298 10.10080877173033
Epoch: 2025-10-19T23:13Z
TLE epoch observation values (Epoch: 2025-10-19T23:13:47.194Z)
Latitude
0.00002°
Longitude
134.15241°
Altitude
1,557.344 km
Speed
7.51 km/s
True Right ascension
10h 05m 06s
True Declination
0° 00' 00"
Sunlit
Object was in daylight at epoch
Visualization orbit readout
Latitude
Unknown
Longitude
Unknown
Altitude
Unknown
Speed
Unknown
Apparent Right ascension
Unknown
Apparent Declination
Unknown
Sunlit
N/A
Visualization observer readout
Local Sidereal Time
01:02:17
Azimuth
Unknown
Elevation
Unknown
Doppler factor
Unknown
Orbital elements
Apogee altitude
4,686.133 km
Perigee altitude
641.198 km
Semi-major axis
9,041.802 km
Eccentricity
0.22368
Inclination
40.8851°
RAAN
151.276°
Arg. of periapsis
68.5292°
True anomaly
291.54041°
Mean anomaly
313.8298°
Eccentric anomaly
303.0928°
Mean motion
2.52441 °/min
Orbital period
142.61 mins
BSTAR
0.00030506
Loading maneuver chart data...
Computing Atmospheric mass density...
Loading historical data...
Loading historical data...
Loading historical data...
Loading historical data...
Loading historical data...
Loading historical data...
Loading historical data...
Other satellites on launch #52 in the year 1966 (1966-06-10 UTC)

Documentation

Showing up to 5 results
|